KD5HIA Weather Reports


Display with metric or nautical units.
time (UTC)temp
F
wind
direction
speed
MPH
gust
MPH
rain 1hr
in
rain 24hr
in
rain mn
in
humidity
%
barometer
mb
20260902074516 78 180 1.0 2.0 0.00 0.00 0.00 59 1016.1
20260902073516 79 203 2.0 2.0 0.00 0.00 0.00 57 1016.1
20260902072516 79 225 1.0 2.0 0.00 0.00 0.00 57 1016.2
20260902071516 79 180 2.0 3.0 0.00 0.00 0.00 57 1016.3
20260902070516 80 180 2.0 3.0 0.00 0.00 0.00 56 1016.2
20260902065516 80 180 2.0 2.0 0.00 0.00 0.00 55 1016.3
20260902064516 81 180 1.0 2.0 0.00 0.00 0.00 55 1016.3
20260902063516 81 180 2.0 4.0 0.00 0.00 0.00 54 1016.2
20260902062516 82 158 3.0 5.0 0.00 0.00 0.00 53 1016.2
20260902061516 82 158 3.0 5.0 0.00 0.00 0.00 54 1016.3
20260902060516 82 158 3.0 5.0 0.00 0.00 0.00 54 1016.3
20260902055515 82 158 3.0 4.0 0.00 0.00 0.00 54 1016.3
20260902054516 82 158 3.0 5.0 0.00 0.00 0.00 53 1016.1
20260902053515 83 158 4.0 6.0 0.00 0.00 0.00 51 1016.1
20260902052516 84 135 5.0 9.0 0.00 0.00 0.00 50 1016.2
20260902051516 84 135 5.0 8.0 0.00 0.00 0.00 50 1016.0
20260902050516 85 135 5.0 8.0 0.00 0.00 0.00 49 1016.0
20260902045516 85 135 5.0 10.0 0.00 0.00 0.00 48 1016.2
20260902044516 86 135 7.0 11.0 0.00 0.00 0.00 47 1016.0
20260902043516 86 135 9.0 13.0 0.00 0.00 0.00 47 1016.1
20260902042516 86 135 9.0 16.0 0.00 0.00 0.00 47 1016.0
20260902041516 86 135 9.0 12.0 0.00 0.00 0.00 46 1015.9
20260902040516 85 135 5.0 9.0 0.00 0.00 0.00 45 1015.7
20260902035516 85 135 4.0 8.0 0.00 0.00 0.00 44 1015.5
20260902034516 85 135 4.0 7.0 0.00 0.00 0.00 43 1015.3
20260902033516 85 113 5.0 7.0 0.00 0.00 0.00 44 1015.2
20260902032515 85 113 5.0 7.0 0.00 0.00 0.00 43 1015.1
20260902031516 86 135 4.0 6.0 0.00 0.00 0.00 43 1014.8
20260902030516 85 135 4.0 7.0 0.00 0.00 0.00 42 1014.6
20260902025516 86 135 3.0 4.0 0.00 0.00 0.00 42 1014.7
20260902024516 87 135 4.0 5.0 0.00 0.00 0.00 41 1014.5
20260902023516 87 113 5.0 7.0 0.00 0.00 0.00 40 1014.3
20260902022516 88 113 5.0 7.0 0.00 0.00 0.00 40 1014.1
20260902021516 88 113 4.0 6.0 0.00 0.00 0.00 40 1013.9
20260902020516 88 113 2.0 4.0 0.00 0.00 0.00 40 1013.7
20260902015516 89 113 2.0 3.0 0.00 0.00 0.00 40 1013.8
20260902014516 89 113 3.0 7.0 0.00 0.00 0.00 39 1013.5
20260902013516 89 90 2.0 2.0 0.00 0.00 0.00 39 1013.4
20260902012516 90 90 2.0 2.0 0.00 0.00 0.00 38 1013.4
20260902011516 92 90 2.0 3.0 0.00 0.00 0.00 35 1013.4
20260902010516 93 113 2.0 4.0 0.00 0.00 0.00 34 1013.3
20260902005516 93 113 3.0 4.0 0.00 0.00 0.00 34 1013.3
20260902004516 94 113 3.0 7.0 0.00 0.00 0.00 34 1013.6
20260902003516 95 90 2.0 7.0 0.00 0.00 0.00 34 1013.6
20260902002516 96 113 3.0 7.0 0.00 0.00 0.00 33 1013.7
20260902001516 96 135 4.0 8.0 0.00 0.00 0.00 33 1013.8
20260902000516 96 113 2.0 4.0 0.00 0.00 0.00 32 1013.7
20260901235516 96 90 4.0 8.0 0.00 0.00 0.00 32 1013.7
20260901234516 96 68 6.0 11.0 0.00 0.00 0.00 31 1013.6
20260901233516 97 90 3.0 8.0 0.00 0.00 0.00 31 1013.5
20260901232516 97 113 5.0 10.0 0.00 0.00 0.00 31 1013.6
20260901231516 97 68 4.0 9.0 0.00 0.00 0.00 31 1013.7
20260901230516 98 68 4.0 9.0 0.00 0.00 0.00 31 1013.7
20260901225516 98 90 6.0 11.0 0.00 0.00 0.00 30 1013.6
20260901224516 98 113 4.0 10.0 0.00 0.00 0.00 31 1013.7
20260901223516 98 90 6.0 13.0 0.00 0.00 0.00 31 1013.7
20260901222516 98 113 6.0 11.0 0.00 0.00 0.00 30 1013.8
20260901221519 98 90 5.0 11.0 0.00 0.00 0.00 31 1013.9
20260901220519 98 90 4.0 10.0 0.00 0.00 0.00 31 1014.0
20260901215519 98 135 4.0 10.0 0.00 0.00 0.00 31 1014.0
20260901214516 98 135 9.0 12.0 0.00 0.00 0.00 31 1014.1
20260901213516 99 135 6.0 11.0 0.00 0.00 0.00 31 1014.1
20260901212516 98 135 2.0 7.0 0.00 0.00 0.00 31 1014.2
20260901211516 98 135 6.0 11.0 0.00 0.00 0.00 31 1014.5
20260901210516 99 90 5.0 11.0 0.00 0.00 0.00 31 1014.7
20260901205516 98 68 4.0 9.0 0.00 0.00 0.00 31 1014.8
20260901204516 98 90 6.0 13.0 0.00 0.00 0.00 31 1015.0
20260901203516 98 135 5.0 13.0 0.00 0.00 0.00 31 1015.2
20260901202516 98 90 4.0 9.0 0.00 0.00 0.00 31 1015.4
20260901201516 99 68 4.0 10.0 0.00 0.00 0.00 32 1015.7
20260901200516 99 90 5.0 9.0 0.00 0.00 0.00 33 1015.8
20260901195516 99 90 3.0 8.0 0.00 0.00 0.00 32 1016.0
20260901194516 98 90 3.0 9.0 0.00 0.00 0.00 33 1016.1
20260901193516 98 135 4.0 8.0 0.00 0.00 0.00 32 1016.0
20260901192516 94 135 4.0 9.0 0.00 0.00 0.00 35 1016.1
20260901191516 96 113 3.0 6.0 0.00 0.00 0.00 33 1016.4
20260901190516 96 135 2.0 4.0 0.00 0.00 0.00 35 1016.4
20260901185516 95 90 5.0 10.0 0.00 0.00 0.00 35 1016.5
20260901184516 97 135 4.0 9.0 0.00 0.00 0.00 35 1016.8
20260901183516 96 90 5.0 9.0 0.00 0.00 0.00 36 1016.9
20260901182516 97 113 6.0 10.0 0.00 0.00 0.00 35 1017.0
20260901181516 95 90 4.0 8.0 0.00 0.00 0.00 37 1017.2
20260901180516 93 135 1.0 5.0 0.00 0.00 0.00 38 1017.2
20260901175516 92 203 3.0 6.0 0.00 0.00 0.00 39 1017.3
20260901174516 94 135 3.0 8.0 0.00 0.00 0.00 36 1017.6
20260901173516 95 113 5.0 10.0 0.00 0.00 0.00 36 1017.8
20260901172516 93 158 6.0 10.0 0.00 0.00 0.00 40 1017.7
20260901171516 92 135 8.0 12.0 0.00 0.00 0.00 39 1017.9
20260901170516 91 135 11.0 18.0 0.00 0.00 0.00 39 1018.0
20260901165516 92 158 8.0 12.0 0.00 0.00 0.00 40 1018.0
20260901164516 90 135 6.0 10.0 0.00 0.00 0.00 40 1018.0
20260901163516 88 158 3.0 7.0 0.00 0.00 0.00 44 1017.9
20260901162516 86 158 3.0 5.0 0.00 0.00 0.00 47 1018.0
20260901161516 86 135 3.0 6.0 0.00 0.00 0.00 44 1018.1
20260901160516 86 158 2.0 6.0 0.00 0.00 0.00 49 1018.2
20260901155516 85 225 2.0 3.0 0.00 0.00 0.00 50 1018.0
20260901154516 84 203 2.0 5.0 0.00 0.00 0.00 52 1018.1
20260901153516 83 180 4.0 7.0 0.00 0.00 0.00 54 1018.0
20260901152516 82 180 3.0 5.0 0.00 0.00 0.00 57 1018.0
20260901151516 81 180 3.0 5.0 0.00 0.00 0.00 59 1018.1
20260901150516 81 158 3.0 5.0 0.00 0.00 0.00 61 1018.0
20260901145516 81 158 4.0 7.0 0.00 0.00 0.00 60 1018.1
20260901144516 81 158 5.0 9.0 0.00 0.00 0.00 60 1018.1
20260901143516 81 180 3.0 5.0 0.00 0.00 0.00 60 1018.0
20260901142516 80 158 2.0 4.0 0.00 0.00 0.00 61 1018.2
20260901141516 80 135 3.0 5.0 0.00 0.00 0.00 60 1018.2
20260901140516 80 135 2.0 4.0 0.00 0.00 0.00 62 1018.1
20260901135516 79 158 4.0 7.0 0.00 0.00 0.00 62 1017.9
20260901134516 79 158 4.0 8.0 0.00 0.00 0.00 63 1018.1
20260901133516 79 158 3.0 5.0 0.00 0.00 0.00 63 1018.1
20260901132516 79 135 4.0 6.0 0.00 0.00 0.00 64 1018.1
20260901131516 79 135 1.0 2.0 0.00 0.00 0.00 65 1018.1
20260901130516 78 135 1.0 4.0 0.00 0.00 0.00 64 1018.0
20260901125516 78 135 3.0 5.0 0.00 0.00 0.00 65 1017.9
20260901124516 78 158 3.0 7.0 0.00 0.00 0.00 65 1017.8
20260901123516 78 158 2.0 4.0 0.00 0.00 0.00 66 1017.7
20260901122516 78 135 2.0 3.0 0.00 0.00 0.00 64 1017.7
20260901121516 78 158 2.0 4.0 0.00 0.00 0.00 64 1017.7
20260901120516 78 203 2.0 8.0 0.00 0.00 0.00 63 1017.6
20260901115516 78 0.0 2.0 0.00 0.00 0.00 64 1017.5
20260901114516 78 158 2.0 5.0 0.00 0.00 0.00 63 1017.4
20260901113516 78 158 2.0 6.0 0.00 0.00 0.00 64 1017.4
20260901112516 78 158 2.0 4.0 0.00 0.00 0.00 63 1017.4
20260901111516 79 0.0 0.0 0.00 0.00 0.00 63 1017.4
20260901110516 79 203 2.0 5.0 0.00 0.00 0.00 63 1017.3
20260901105516 79 203 4.0 7.0 0.00 0.00 0.00 63 1017.0
20260901104516 79 203 4.0 8.0 0.00 0.00 0.00 63 1017.0
20260901103516 79 203 5.0 7.0 0.00 0.00 0.00 62 1016.9
20260901102516 79 203 6.0 10.0 0.00 0.00 0.00 62 1016.9
20260901101516 79 180 7.0 12.0 0.00 0.00 0.00 62 1017.1
20260901100516 79 180 7.0 12.0 0.00 0.00 0.00 61 1017.0
20260901095516 80 158 8.0 12.0 0.00 0.00 0.00 61 1017.1
20260901094516 80 180 9.0 15.0 0.00 0.00 0.00 61 1016.8
20260901093519 80 180 9.0 14.0 0.00 0.00 0.00 60 1016.8
20260901092519 80 180 10.0 15.0 0.00 0.00 0.00 60 1016.9
20260901091519 80 158 10.0 15.0 0.00 0.00 0.00 61 1016.7
20260901090516 80 158 10.0 14.0 0.00 0.00 0.00 61 1016.7
20260901085516 81 158 9.0 14.0 0.00 0.00 0.00 60 1016.7
20260901084516 81 158 8.0 12.0 0.00 0.00 0.00 60 1016.8
20260901083516 81 158 9.0 14.0 0.00 0.00 0.00 59 1016.9
20260901082516 81 158 7.0 12.0 0.00 0.00 0.00 59 1016.9
20260901081516 81 158 9.0 14.0 0.00 0.00 0.00 58 1016.7
20260901080516 81 158 9.0 14.0 0.00 0.00 0.00 58 1016.7
20260901075516 82 158 10.0 16.0 0.00 0.00 0.00 57 1016.7